Погода в Прохоровке

Россия / Белгородская область     51°02′03″N   36°43′59″E
темп.,
°C
ветер,
м/с
пор.,
м/с
влажн.,
%
обл.,
%
осадки,
мм/ч
давл.,
гПа
погр.,
м
24 января, пн
пн2400:00−10ссв6159576 0.0 1028297
03:00−10ссв71792100 0.0 1027357
06:00−8ссв81792100 0.0 1027462
09:00−8св7159291 0.2 1028468
12:00−7ссв71392100 0.1 1028463
15:00−6ссв61193100 0.1 1028509
18:00−8св51194100 0.0 1028365
21:00−9ссв51095100 0.1 1028283
25 января, вт
вт2500:00−14св389875 0.0 1028111
03:00−18ссв2210099 0.0 102830
06:00−18ссв3410097 0.0 102748
09:00−19св2210087 0.0 102733
12:00−11ссз1292100 0.0 1025118
15:00−10ссз1291100 0.0 1023175
18:00−11зюз2296100 0.0 102225
21:00−13з2197100 0.0 102226
26 января, ср
ср2600:00−17зюз2299100 0.0 102216
03:00−19зюз23100100 0.0 102135
06:00−16юз2398100 0.0 101955
09:00−12юз2596100 0.0 1018145
12:00−8юз3593100 0.3 1018257
15:00−7юз3594100 0.7 1017393
18:00−9юз229898 0.3 101820
21:00−11зюз129884 0.4 101913
27 января, чт
чт2700:00−11сз119793 0.2 101912
03:00−15сз2210093 0.3 10199
06:00−17ссз2210094 0.1 10199
09:00−17ссз1110095 0.1 10209
12:00−10ююз119578 0.0 101893
15:00−9ююз239566 0.1 1017167
18:00−15ю2210088 0.0 101713
21:00−16ю36100100 0.1 101764
28 января, пт
пт2800:00−15ю49100100 0.1 1016121
03:00−11ююв5119782 0.1 1014231
06:00−10ююв51196100 0.1 1012232
09:00−8ююв61295100 0.3 1010305
12:00−5ю61296100 0.7 1008433
15:00−1ююз51197100 1.6 1006603
18:00−1юз51198100 0.7 1005534
21:00−1юз51197100 0.9 1006425